Time,TemperatureF,DewpointF,PressureIn,WindDirection,WindDirectionDegrees,WindSpeedMPH,WindSpeedGustMPH,Humidity,HourlyPrecipIn,Conditions,Clouds,dailyrainin,SolarRadiationWatts/m^2,SoftwareType,DateUTC
2013-05-22 00:01:00,72.3,66.1,29.72,SW,222,1.1,1.1,81,0.00,SCT,,0.00,0.0,WeatherDisplay:10.37,2013-05-22 04:01:00,
2013-05-22 00:02:00,72.3,66.1,29.72,SW,222,1.1,0.0,81,0.00,SCT,,0.00,0.0,WeatherDisplay:10.37,2013-05-22 04:02:00,
2013-05-22 00:03:00,72.3,66.1,29.72,SSW,213,1.1,1.1,81,0.00,SCT,,0.00,0.0,WeatherDisplay:10.37,2013-05-22 04:03:00,
2013-05-22 00:08:00,72.1,66.3,29.72,SW,215,1.1,1.1,82,0.00,SCT,,0.00,0.0,WeatherDisplay:10.37,2013-05-22 04:08:00,
2013-05-22 00:10:00,72.1,66.3,29.72,SSW,213,1.1,1.1,82,0.00,SCT,,0.00,0.0,WeatherDisplay:10.37,2013-05-22 04:10:00,
2013-05-22 00:15:00,72.0,66.2,29.72,SSW,210,4.6,4.6,82,0.00,SCT,,0.00,0.0,WeatherDisplay:10.37,2013-05-22 04:15:00,
2013-05-22 00:20:00,72.0,66.2,29.72,SSW,213,2.3,0.0,82,0.00,SCT,,0.00,0.0,WeatherDisplay:10.37,2013-05-22 04:20:00,
2013-05-22 00:25:00,71.8,66.0,29.72,SSW,213,1.1,0.0,82,0.00,SCT,,0.00,0.0,WeatherDisplay:10.37,2013-05-22 04:25:00,
2013-05-22 00:30:00,71.8,66.4,29.73,SSW,209,1.1,0.0,83,0.00,SCT,,0.00,0.0,WeatherDisplay:10.37,2013-05-22 04:30:00,
2013-05-22 00:35:00,71.6,66.2,29.73,SSW,213,1.1,1.2,83,0.00,SCT,,0.00,0.0,WeatherDisplay:10.37,2013-05-22 04:35:00,
2013-05-22 00:40:00,71.6,66.2,29.73,SSW,206,2.3,2.3,83,0.00,SCT,,0.00,0.0,WeatherDisplay:10.37,2013-05-22 04:40:00,
2013-05-22 00:45:00,71.6,66.2,29.73,SSW,212,1.1,1.1,83,0.00,SCT,,0.00,0.0,WeatherDisplay:10.37,2013-05-22 04:45:00,
2013-05-22 00:50:00,71.5,66.1,29.73,WSW,243,0.0,0.0,83,0.00,SCT,,0.00,0.0,WeatherDisplay:10.37,2013-05-22 04:50:00,
2013-05-22 00:55:00,71.5,66.4,29.73,SSW,209,2.3,0.0,84,0.00,SCT,,0.00,0.0,WeatherDisplay:10.37,2013-05-22 04:55:00,
2013-05-22 01:00:00,71.3,66.2,29.73,WSW,241,1.1,1.1,84,0.00,SCT,,0.00,0.0,WeatherDisplay:10.37,2013-05-22 05:00:00,
2013-05-22 01:05:00,71.3,66.2,29.73,SW,223,1.1,0.0,84,0.00,SCT,,0.00,0.0,WeatherDisplay:10.37,2013-05-22 05:05:00,
2013-05-22 01:10:00,71.1,66.0,29.73,WSW,239,2.3,2.3,84,0.00,SCT,,0.00,0.0,WeatherDisplay:10.37,2013-05-22 05:10:00,
2013-05-22 01:15:00,71.1,66.0,29.73,SSW,212,1.1,0.0,84,0.00,SCT,,0.00,0.0,WeatherDisplay:10.37,2013-05-22 05:15:00,
2013-05-22 01:20:00,70.9,66.2,29.73,SSW,203,1.1,1.1,85,0.00,SCT,,0.00,0.0,WeatherDisplay:10.37,2013-05-22 05:20:00,
2013-05-22 01:25:00,70.9,66.2,29.73,SSW,203,2.3,0.0,85,0.00,SCT,,0.00,0.0,WeatherDisplay:10.37,2013-05-22 05:25:00,
2013-05-22 01:30:00,70.8,66.1,29.72,SSW,203,1.1,1.1,85,0.00,SCT,,0.00,0.0,WeatherDisplay:10.37,2013-05-22 05:30:00,
2013-05-22 01:35:00,70.6,65.9,29.72,SW,234,2.3,2.3,85,0.00,SCT,,0.00,0.0,WeatherDisplay:10.37,2013-05-22 05:35:00,
2013-05-22 01:40:00,70.6,66.2,29.72,SSW,206,2.0,2.0,86,0.00,SCT,,0.00,0.0,WeatherDisplay:10.37,2013-05-22 05:40:00,
2013-05-22 01:45:00,70.4,66.0,29.72,SW,215,0.0,0.1,86,0.00,SCT,,0.00,0.0,WeatherDisplay:10.37,2013-05-22 05:45:00,
2013-05-22 01:50:00,70.4,66.0,29.72,SW,224,1.1,0.0,86,0.00,SCT,,0.00,0.0,WeatherDisplay:10.37,2013-05-22 05:50:00,
2013-05-22 01:55:00,70.3,65.9,29.72,SW,222,2.3,0.0,86,0.00,SCT,,0.00,0.0,WeatherDisplay:10.37,2013-05-22 05:55:00,
2013-05-22 02:00:00,70.3,65.9,29.72,SSW,213,1.1,0.0,86,0.00,SCT,,0.00,0.0,WeatherDisplay:10.37,2013-05-22 06:00:00,
2013-05-22 02:05:00,70.3,66.2,29.72,SW,226,1.1,1.1,87,0.00,SCT,,0.00,0.0,WeatherDisplay:10.37,2013-05-22 06:05:00,
2013-05-22 02:10:00,70.1,66.0,29.72,SW,226,1.1,0.0,87,0.00,SCT,,0.00,0.0,WeatherDisplay:10.37,2013-05-22 06:10:00,
2013-05-22 02:15:00,69.9,65.9,29.72,WSW,240,1.1,1.1,87,0.00,SCT,,0.00,0.0,WeatherDisplay:10.37,2013-05-22 06:15:00,
2013-05-22 02:20:00,69.9,66.2,29.72,SSW,199,1.1,1.1,88,0.00,SCT,,0.00,0.0,WeatherDisplay:10.37,2013-05-22 06:20:00,
2013-05-22 02:25:00,69.9,66.2,29.72,SSW,212,1.1,1.1,88,0.00,SCT,,0.00,0.0,WeatherDisplay:10.37,2013-05-22 06:25:00,
2013-05-22 02:30:00,69.8,66.1,29.71,SSW,213,1.1,1.1,88,0.00,SCT,,0.00,0.0,WeatherDisplay:10.37,2013-05-22 06:30:00,
2013-05-22 02:35:00,69.8,66.1,29.71,SSW,213,1.1,1.1,88,0.00,BKN,,0.00,0.0,WeatherDisplay:10.37,2013-05-22 06:35:00,
2013-05-22 02:40:00,69.6,66.2,29.71,SSW,196,2.3,2.3,89,0.00,BKN,,0.00,0.0,WeatherDisplay:10.37,2013-05-22 06:40:00,
2013-05-22 02:45:00,69.6,66.2,29.71,SSW,210,1.1,1.1,89,0.00,BKN,,0.00,0.0,WeatherDisplay:10.37,2013-05-22 06:45:00,
2013-05-22 02:50:00,69.6,66.2,29.71,SSW,208,1.1,1.1,89,0.00,BKN,,0.00,0.0,WeatherDisplay:10.37,2013-05-22 06:50:00,
2013-05-22 02:55:00,69.4,66.0,29.71,SSW,208,0.0,0.0,89,0.00,BKN,,0.00,0.0,WeatherDisplay:10.37,2013-05-22 06:55:00,
2013-05-22 03:00:00,69.4,66.0,29.70,SW,227,2.3,0.0,89,0.00,BKN,,0.00,0.0,WeatherDisplay:10.37,2013-05-22 07:00:00,
2013-05-22 03:05:00,69.3,65.9,29.70,SW,226,1.1,0.0,89,0.00,BKN,,0.00,0.0,WeatherDisplay:10.37,2013-05-22 07:05:00,
2013-05-22 03:10:00,69.3,65.9,29.70,SW,216,1.1,0.0,89,0.00,BKN,,0.00,0.0,WeatherDisplay:10.37,2013-05-22 07:10:00,
2013-05-22 03:15:00,69.1,66.0,29.70,SW,215,3.5,0.0,90,0.00,BKN,,0.00,0.0,WeatherDisplay:10.37,2013-05-22 07:15:00,
2013-05-22 03:20:00,69.1,66.0,29.70,South,188,2.3,2.3,90,0.00,BKN,,0.00,0.0,WeatherDisplay:10.37,2013-05-22 07:20:00,
2013-05-22 03:25:00,69.1,66.0,29.70,SW,217,1.1,1.1,90,0.00,BKN,,0.00,0.0,WeatherDisplay:10.37,2013-05-22 07:25:00,
2013-05-22 03:30:00,69.1,66.0,29.70,SW,217,1.1,1.1,90,0.00,BKN,,0.00,0.0,WeatherDisplay:10.37,2013-05-22 07:30:00,
2013-05-22 03:35:00,68.9,65.8,29.70,SW,217,0.0,0.0,90,0.00,BKN,,0.00,0.0,WeatherDisplay:10.37,2013-05-22 07:35:00,
2013-05-22 03:40:00,68.9,65.8,29.70,SW,222,2.3,2.3,90,0.00,BKN,,0.00,0.0,WeatherDisplay:10.37,2013-05-22 07:40:00,
2013-05-22 03:45:00,68.9,66.2,29.70,SW,223,1.1,1.1,91,0.00,BKN,,0.00,0.0,WeatherDisplay:10.37,2013-05-22 07:45:00,
2013-05-22 03:50:00,68.9,66.2,29.70,SW,220,0.0,0.0,91,0.00,BKN,,0.00,0.0,WeatherDisplay:10.37,2013-05-22 07:50:00,
2013-05-22 03:55:00,68.8,66.1,29.70,SW,220,0.0,0.0,91,0.00,BKN,,0.00,0.0,WeatherDisplay:10.37,2013-05-22 07:55:00,
2013-05-22 04:00:00,68.8,66.1,29.70,SW,220,0.0,0.0,91,0.00,BKN,,0.00,0.0,WeatherDisplay:10.37,2013-05-22 08:00:00,
2013-05-22 04:05:00,68.8,66.1,29.70,SW,220,0.0,0.0,91,0.00,BKN,,0.00,0.0,WeatherDisplay:10.37,2013-05-22 08:05:00,
2013-05-22 04:10:00,68.8,66.1,29.70,SW,220,0.0,0.0,91,0.00,BKN,,0.00,0.0,WeatherDisplay:10.37,2013-05-22 08:10:00,
2013-05-22 04:15:00,68.8,66.1,29.70,SW,220,0.0,0.0,91,0.00,BKN,,0.00,0.0,WeatherDisplay:10.37,2013-05-22 08:15:00,
2013-05-22 04:20:00,68.8,66.1,29.70,SW,220,0.0,0.0,91,0.00,SCT,,0.00,0.0,WeatherDisplay:10.37,2013-05-22 08:20:00,
2013-05-22 04:25:00,68.6,65.9,29.70,SW,220,0.0,0.0,91,0.00,SCT,,0.00,0.0,WeatherDisplay:10.37,2013-05-22 08:25:00,
2013-05-22 04:30:00,68.6,65.9,29.69,SW,220,0.0,0.0,91,0.00,SCT,,0.00,0.0,WeatherDisplay:10.37,2013-05-22 08:30:00,
2013-05-22 04:35:00,68.6,65.9,29.69,SW,220,0.0,0.0,91,0.00,SCT,,0.00,0.0,WeatherDisplay:10.37,2013-05-22 08:35:00,
2013-05-22 04:40:00,68.4,65.7,29.69,SW,220,0.0,0.1,91,0.00,SCT,,0.00,0.0,WeatherDisplay:10.37,2013-05-22 08:40:00,
2013-05-22 04:45:00,68.6,66.2,29.70,SW,220,0.0,0.0,92,0.00,SCT,,0.00,0.0,WeatherDisplay:10.37,2013-05-22 08:45:00,
2013-05-22 04:50:00,68.6,66.2,29.70,SW,220,1.1,1.1,92,0.00,OVC,,0.00,0.0,WeatherDisplay:10.37,2013-05-22 08:50:00,
2013-05-22 04:55:00,68.6,66.2,29.70,SW,223,1.1,1.1,92,0.00,OVC,,0.00,0.0,WeatherDisplay:10.37,2013-05-22 08:55:00,
2013-05-22 05:00:00,68.8,66.4,29.70,SW,223,1.1,0.0,92,0.00,OVC,,0.00,0.0,WeatherDisplay:10.37,2013-05-22 09:00:00,
2013-05-22 05:05:00,68.8,66.4,29.70,WSW,258,1.1,1.1,92,0.00,OVC,,0.00,0.0,WeatherDisplay:10.37,2013-05-22 09:05:00,
2013-05-22 05:10:00,68.8,66.4,29.70,WSW,247,1.1,1.1,92,0.00,OVC,,0.00,0.0,WeatherDisplay:10.37,2013-05-22 09:10:00,
2013-05-22 05:15:00,68.9,66.5,29.71,SW,224,1.1,0.0,92,0.00,OVC,,0.00,0.0,WeatherDisplay:10.37,2013-05-22 09:15:00,
2013-05-22 05:20:00,68.9,66.5,29.71,SW,223,3.5,3.5,92,0.00,OVC,,0.00,0.0,WeatherDisplay:10.37,2013-05-22 09:20:00,
2013-05-22 05:25:00,68.9,66.5,29.71,West,274,1.1,1.1,92,0.00,OVC,,0.00,0.0,WeatherDisplay:10.37,2013-05-22 09:25:00,
2013-05-22 05:30:00,68.9,66.5,29.71,SW,224,0.0,0.1,92,0.00,OVC,,0.00,0.0,WeatherDisplay:10.37,2013-05-22 09:30:00,
2013-05-22 05:35:00,68.9,66.8,29.71,SSW,212,1.1,1.1,93,0.00,OVC,,0.00,0.0,WeatherDisplay:10.37,2013-05-22 09:35:00,
2013-05-22 05:40:00,68.9,66.8,29.71,SSW,213,2.3,2.3,93,0.00,OVC,,0.00,0.0,WeatherDisplay:10.37,2013-05-22 09:40:00,
2013-05-22 05:45:00,69.1,67.0,29.71,SW,233,2.3,2.3,93,0.00,OVC,,0.00,0.0,WeatherDisplay:10.37,2013-05-22 09:45:00,
2013-05-22 05:50:00,69.1,67.0,29.71,SSW,212,1.1,1.1,93,0.00,OVC,,0.00,5.0,WeatherDisplay:10.37,2013-05-22 09:50:00,
2013-05-22 05:55:00,69.1,67.0,29.71,SW,223,2.3,2.3,93,0.00,OVC,,0.00,5.0,WeatherDisplay:10.37,2013-05-22 09:55:00,
2013-05-22 06:00:00,69.1,67.0,29.71,WSW,246,1.1,1.1,93,0.00,OVC,,0.00,7.0,WeatherDisplay:10.37,2013-05-22 10:00:00,
2013-05-22 06:05:00,69.1,67.0,29.71,SW,234,2.3,0.0,93,0.00,OVC,,0.00,9.0,WeatherDisplay:10.37,2013-05-22 10:05:00,
2013-05-22 06:10:00,69.1,67.0,29.71,SW,234,0.0,0.0,93,0.00,OVC,,0.00,9.0,WeatherDisplay:10.37,2013-05-22 10:10:00,
2013-05-22 06:15:00,69.1,67.0,29.72,WSW,241,1.1,1.1,93,0.00,OVC,,0.00,11.0,WeatherDisplay:10.37,2013-05-22 10:15:00,
2013-05-22 06:20:00,69.1,67.0,29.72,SW,222,1.1,0.0,93,0.00,OVC,,0.00,14.0,WeatherDisplay:10.37,2013-05-22 10:20:00,
2013-05-22 06:25:00,69.3,67.2,29.72,SW,215,0.0,0.0,93,0.00,OVC,,0.00,16.0,WeatherDisplay:10.37,2013-05-22 10:25:00,
2013-05-22 06:30:00,69.3,67.2,29.72,SSW,206,2.3,2.3,93,0.00,OVC,,0.00,23.0,WeatherDisplay:10.37,2013-05-22 10:30:00,
2013-05-22 06:35:00,69.3,67.2,29.72,SW,236,2.0,2.0,93,0.00,OVC,,0.00,26.0,WeatherDisplay:10.37,2013-05-22 10:35:00,
2013-05-22 06:40:00,69.3,67.2,29.72,SW,215,1.1,1.1,93,0.00,OVC,,0.00,30.0,WeatherDisplay:10.37,2013-05-22 10:40:00,
2013-05-22 06:45:00,69.4,67.3,29.72,SW,217,1.1,1.1,93,0.00,OVC,,0.00,33.0,WeatherDisplay:10.37,2013-05-22 10:45:00,
2013-05-22 06:50:00,69.4,67.3,29.72,SW,216,2.3,0.0,93,0.00,OVC,,0.00,35.0,WeatherDisplay:10.37,2013-05-22 10:50:00,
2013-05-22 06:55:00,69.4,67.3,29.72,SW,217,0.0,0.1,93,0.00,OVC,,0.00,32.0,WeatherDisplay:10.37,2013-05-22 10:55:00,
2013-05-22 07:00:00,69.4,67.3,29.73,WSW,237,2.3,2.3,93,0.00,OVC,,0.00,30.0,WeatherDisplay:10.37,2013-05-22 11:00:00,
2013-05-22 07:05:00,69.4,67.3,29.73,SW,229,1.1,1.1,93,0.00,OVC,,0.00,33.0,WeatherDisplay:10.37,2013-05-22 11:05:00,
2013-05-22 07:10:00,69.4,67.6,29.73,SW,226,1.1,0.0,94,0.00,OVC,,0.00,48.0,WeatherDisplay:10.37,2013-05-22 11:10:00,
2013-05-22 07:15:00,69.6,67.8,29.73,SW,226,0.0,0.2,94,0.00,OVC,,0.00,62.0,WeatherDisplay:10.37,2013-05-22 11:15:00,
2013-05-22 07:20:00,69.6,67.8,29.73,SW,219,2.3,0.0,94,0.00,OVC,,0.00,70.0,WeatherDisplay:10.37,2013-05-22 11:20:00,
2013-05-22 07:25:00,69.6,67.8,29.73,SSW,210,1.1,1.1,94,0.00,OVC,,0.00,81.0,WeatherDisplay:10.37,2013-05-22 11:25:00,
2013-05-22 07:30:00,69.8,68.0,29.73,SW,229,1.1,1.1,94,0.00,OVC,,0.00,56.0,WeatherDisplay:10.37,2013-05-22 11:30:00,
2013-05-22 07:35:00,69.8,68.0,29.73,WNW,295,2.3,2.3,94,0.00,OVC,,0.00,53.0,WeatherDisplay:10.37,2013-05-22 11:35:00,
2013-05-22 07:40:00,69.8,68.0,29.73,SW,226,1.1,1.1,94,0.00,OVC,,0.00,60.0,WeatherDisplay:10.37,2013-05-22 11:40:00,
2013-05-22 07:45:00,69.9,68.1,29.73,SW,226,1.1,0.0,94,0.00,OVC,,0.00,56.0,WeatherDisplay:10.37,2013-05-22 11:45:00,
2013-05-22 07:50:00,69.9,67.8,29.73,SW,226,1.0,0.0,93,0.00,OVC,,0.00,53.0,WeatherDisplay:10.37,2013-05-22 11:50:00,
2013-05-22 07:55:00,70.1,68.0,29.73,SW,219,3.0,3.0,93,0.00,OVC,,0.00,90.0,WeatherDisplay:10.37,2013-05-22 11:55:00,
2013-05-22 08:00:00,70.1,68.0,29.75,SW,234,1.1,0.0,93,0.00,OVC,,0.00,70.0,WeatherDisplay:10.37,2013-05-22 12:00:00,
2013-05-22 08:05:00,70.1,68.0,29.75,SW,232,0.0,0.2,93,0.00,OVC,,0.00,86.0,WeatherDisplay:10.37,2013-05-22 12:05:00,
2013-05-22 08:10:00,70.3,68.2,29.75,SW,229,0.0,0.0,93,0.00,OVC,,0.00,88.0,WeatherDisplay:10.37,2013-05-22 12:10:00,
2013-05-22 08:15:00,70.3,68.2,29.74,SW,230,1.1,0.0,93,0.00,OVC,,0.00,100.0,WeatherDisplay:10.37,2013-05-22 12:15:00,
2013-05-22 08:20:00,70.4,68.0,29.74,SW,227,2.3,2.3,92,0.00,OVC,,0.00,106.0,WeatherDisplay:10.37,2013-05-22 12:20:00,
2013-05-22 08:25:00,70.4,68.0,29.74,SSW,205,1.1,1.1,92,0.00,OVC,,0.00,137.0,WeatherDisplay:10.37,2013-05-22 12:25:00,
2013-05-22 08:30:00,70.6,68.2,29.75,SSW,210,0.0,0.5,92,0.00,OVC,,0.00,120.0,WeatherDisplay:10.37,2013-05-22 12:30:00,
2013-05-22 08:35:00,70.8,68.4,29.75,SSW,210,0.0,0.1,92,0.00,OVC,,0.00,109.0,WeatherDisplay:10.37,2013-05-22 12:35:00,
2013-05-22 08:40:00,70.8,68.0,29.75,SW,223,2.3,2.3,91,0.00,OVC,,0.00,100.0,WeatherDisplay:10.37,2013-05-22 12:40:00,
2013-05-22 08:45:00,70.8,68.0,29.75,SW,232,1.1,1.1,91,0.00,OVC,,0.00,99.0,WeatherDisplay:10.37,2013-05-22 12:45:00,
2013-05-22 08:50:00,70.8,68.0,29.75,SSW,210,1.1,1.1,91,0.00,OVC,,0.00,113.0,WeatherDisplay:10.37,2013-05-22 12:50:00,
2013-05-22 08:55:00,70.9,68.1,29.75,SSW,209,1.1,0.0,91,0.00,OVC,,0.00,130.0,WeatherDisplay:10.37,2013-05-22 12:55:00,
2013-05-22 09:00:00,70.9,67.8,29.75,SW,220,1.1,1.1,90,0.00,OVC,,0.00,148.0,WeatherDisplay:10.37,2013-05-22 13:00:00,
2013-05-22 09:05:00,70.9,67.8,29.75,South,184,3.5,3.5,90,0.00,OVC,,0.00,160.0,WeatherDisplay:10.37,2013-05-22 13:05:00,
2013-05-22 09:10:00,71.1,68.0,29.75,SW,216,0.0,0.0,90,0.00,OVC,,0.00,158.0,WeatherDisplay:10.37,2013-05-22 13:10:00,
2013-05-22 09:15:00,71.3,68.2,29.75,SW,215,2.3,2.3,90,0.00,OVC,,0.00,176.0,WeatherDisplay:10.37,2013-05-22 13:15:00,
2013-05-22 09:20:00,71.5,68.4,29.75,SW,226,0.0,0.0,90,0.00,OVC,,0.00,192.0,WeatherDisplay:10.37,2013-05-22 13:20:00,
2013-05-22 09:25:00,71.6,68.2,29.75,SW,226,1.1,1.1,89,0.00,OVC,,0.00,176.0,WeatherDisplay:10.37,2013-05-22 13:25:00,
2013-05-22 09:30:00,71.8,68.4,29.75,SW,226,1.1,1.1,89,0.00,OVC,,0.00,181.0,WeatherDisplay:10.37,2013-05-22 13:30:00,
2013-05-22 09:35:00,71.8,68.4,29.75,SW,215,1.1,0.0,89,0.00,OVC,,0.00,144.0,WeatherDisplay:10.37,2013-05-22 13:35:00,
2013-05-22 09:40:00,71.8,68.1,29.75,WSW,239,2.3,0.0,88,0.00,OVC,,0.00,185.0,WeatherDisplay:10.37,2013-05-22 13:40:00,
2013-05-22 09:45:00,72.1,68.3,29.76,SSW,203,1.1,1.1,88,0.00,OVC,,0.00,141.0,WeatherDisplay:10.37,2013-05-22 13:45:00,
2013-05-22 09:50:00,72.3,68.5,29.76,West,271,3.5,3.5,88,0.00,OVC,,0.00,151.0,WeatherDisplay:10.37,2013-05-22 13:50:00,
2013-05-22 09:55:00,72.3,68.2,29.76,WNW,285,1.1,1.1,87,0.00,OVC,,0.00,146.0,WeatherDisplay:10.37,2013-05-22 13:55:00,
2013-05-22 10:00:00,72.5,68.4,29.76,SW,224,2.0,2.0,87,0.00,OVC,,0.00,135.0,WeatherDisplay:10.37,2013-05-22 14:00:00,
2013-05-22 10:05:00,72.5,68.4,29.76,SW,223,1.1,1.1,87,0.00,OVC,,0.00,179.0,WeatherDisplay:10.37,2013-05-22 14:05:00,
2013-05-22 10:10:00,72.7,68.6,29.76,West,275,0.0,0.0,87,0.00,OVC,,0.00,157.0,WeatherDisplay:10.37,2013-05-22 14:10:00,
2013-05-22 10:15:00,72.8,68.7,29.77,SSW,203,4.6,4.6,87,0.00,OVC,,0.00,137.0,WeatherDisplay:10.37,2013-05-22 14:15:00,
2013-05-22 10:20:00,72.8,68.4,29.77,SSW,210,1.1,1.1,86,0.00,OVC,,0.00,148.0,WeatherDisplay:10.37,2013-05-22 14:20:00,
2013-05-22 10:25:00,72.8,68.4,29.77,WSW,241,1.1,0.0,86,0.00,OVC,,0.00,146.0,WeatherDisplay:10.37,2013-05-22 14:25:00,
2013-05-22 10:30:00,73.0,68.6,29.76,WSW,241,0.0,0.3,86,0.00,OVC,,0.00,160.0,WeatherDisplay:10.37,2013-05-22 14:30:00,
2013-05-22 10:35:00,73.0,68.6,29.76,SSW,210,1.1,1.1,86,0.00,OVC,,0.00,192.0,WeatherDisplay:10.37,2013-05-22 14:35:00,
2013-05-22 10:40:00,73.0,68.6,29.76,SSW,210,1.1,0.0,86,0.00,OVC,,0.00,188.0,WeatherDisplay:10.37,2013-05-22 14:40:00,
2013-05-22 10:45:00,73.2,68.8,29.76,SSW,213,0.0,0.2,86,0.00,OVC,,0.00,215.0,WeatherDisplay:10.37,2013-05-22 14:45:00,
2013-05-22 10:50:00,73.3,68.9,29.76,SSW,213,0.0,0.0,86,0.00,OVC,,0.00,211.0,WeatherDisplay:10.37,2013-05-22 14:50:00,
2013-05-22 10:55:00,73.7,68.9,29.76,West,271,1.1,1.1,85,0.00,OVC,,0.00,246.0,WeatherDisplay:10.37,2013-05-22 14:55:00,
2013-05-22 11:00:00,73.9,68.8,29.76,SW,236,1.1,1.1,84,0.00,OVC,,0.00,266.0,WeatherDisplay:10.37,2013-05-22 15:00:00,
2013-05-22 11:05:00,74.0,68.5,29.76,WSW,251,1.1,1.1,83,0.00,OVC,,0.00,317.0,WeatherDisplay:10.37,2013-05-22 15:05:00,
2013-05-22 11:10:00,74.4,68.5,29.76,WSW,239,1.1,1.1,82,0.00,OVC,,0.00,311.0,WeatherDisplay:10.37,2013-05-22 15:10:00,
2013-05-22 11:21:00,74.7,68.8,29.76,SW,220,0.0,0.0,82,0.00,OVC,,0.00,285.0,WeatherDisplay:10.37,2013-05-22 15:21:00,
2013-05-22 11:26:00,74.9,69.0,29.76,SW,222,1.1,1.1,82,0.00,OVC,,0.00,278.0,WeatherDisplay:10.37,2013-05-22 15:26:00,
2013-05-22 11:31:00,75.1,68.9,29.76,SW,229,0.0,0.0,81,0.00,OVC,,0.00,377.0,WeatherDisplay:10.37,2013-05-22 15:31:00,
2013-05-22 11:36:00,75.4,68.4,29.76,NW,304,2.0,2.0,79,0.00,OVC,,0.00,387.0,WeatherDisplay:10.37,2013-05-22 15:36:00,
2013-05-22 11:53:00,76.8,69.0,29.76,SSW,203,3.5,3.5,77,0.00,OVC,,0.00,435.0,WeatherDisplay:10.37,2013-05-22 15:53:00,
2013-05-22 11:58:00,77.6,69.8,29.76,SSW,205,1.1,1.1,77,0.00,OVC,,0.00,435.0,WeatherDisplay:10.37,2013-05-22 15:58:00,
2013-05-22 12:03:00,78.5,69.5,29.75,WSW,244,2.3,0.0,74,0.00,OVC,,0.00,992.0,WeatherDisplay:10.37,2013-05-22 16:03:00,
2013-05-22 12:08:00,79.0,69.2,29.75,South,185,4.6,4.6,72,0.00,OVC,,0.00,399.0,WeatherDisplay:10.37,2013-05-22 16:08:00,
2013-05-22 12:13:00,79.8,69.1,29.75,SSW,210,1.1,1.1,70,0.00,OVC,,0.00,438.0,WeatherDisplay:10.37,2013-05-22 16:13:00,
2013-05-22 12:19:00,80.5,69.0,29.75,WSW,253,1.1,1.7,68,0.00,BKN,,0.00,1013.0,WeatherDisplay:10.37,2013-05-22 16:19:00,
2013-05-22 12:24:00,80.5,69.4,29.75,SSW,206,3.5,3.5,69,0.00,BKN,,0.00,1013.0,WeatherDisplay:10.37,2013-05-22 16:24:00,
2013-05-22 12:29:00,80.7,69.6,29.74,WSW,240,2.3,2.3,69,0.00,BKN,,0.00,941.0,WeatherDisplay:10.37,2013-05-22 16:29:00,
2013-05-22 12:34:00,81.4,69.4,29.74,SSE,160,3.5,3.5,67,0.00,BKN,,0.00,941.0,WeatherDisplay:10.37,2013-05-22 16:34:00,
2013-05-22 12:39:00,82.0,70.0,29.74,SW,217,3.5,3.5,67,0.00,BKN,,0.00,926.0,WeatherDisplay:10.37,2013-05-22 16:39:00,
2013-05-22 12:44:00,83.0,69.6,29.74,SW,224,3.5,3.5,64,0.00,BKN,,0.00,911.0,WeatherDisplay:10.37,2013-05-22 16:44:00,
2013-05-22 12:49:00,82.6,70.1,29.74,SW,215,1.0,1.0,66,0.00,BKN,,0.00,901.0,WeatherDisplay:10.37,2013-05-22 16:49:00,
2013-05-22 12:54:00,83.4,69.9,29.74,SSW,195,1.1,1.1,64,0.00,BKN,,0.00,904.0,WeatherDisplay:10.37,2013-05-22 16:54:00,
2013-05-22 12:59:00,84.0,69.1,29.74,South,191,3.5,3.5,61,0.00,BKN,,0.00,955.0,WeatherDisplay:10.37,2013-05-22 16:59:00,
2013-05-22 13:04:00,84.0,70.0,29.74,SW,219,3.5,3.5,63,0.00,BKN,,0.00,962.0,WeatherDisplay:10.37,2013-05-22 17:04:00,
2013-05-22 13:09:00,84.1,70.1,29.74,SSW,195,3.5,3.5,63,0.00,BKN,,0.00,901.0,WeatherDisplay:10.37,2013-05-22 17:09:00,
2013-05-22 13:14:00,84.5,69.6,29.74,South,184,2.3,2.3,61,0.00,BKN,,0.00,938.0,WeatherDisplay:10.37,2013-05-22 17:14:00,
2013-05-22 13:19:00,84.9,69.9,29.74,West,277,4.6,4.6,61,0.00,BKN,,0.00,904.0,WeatherDisplay:10.37,2013-05-22 17:19:00,
2013-05-22 13:24:00,85.1,69.7,29.74,WSW,258,2.3,2.3,60,0.00,BKN,,0.00,948.0,WeatherDisplay:10.37,2013-05-22 17:24:00,
2013-05-22 13:29:00,85.3,69.8,29.73,SSW,210,4.6,4.6,60,0.00,BKN,,0.00,924.0,WeatherDisplay:10.37,2013-05-22 17:29:00,
2013-05-22 13:34:00,85.7,69.2,29.73,SE,145,3.5,3.5,58,0.00,BKN,,0.00,933.0,WeatherDisplay:10.37,2013-05-22 17:34:00,
2013-05-22 13:39:00,85.9,69.4,29.73,North,357,2.3,2.3,58,0.00,BKN,,0.00,906.0,WeatherDisplay:10.37,2013-05-22 17:39:00,
2013-05-22 13:44:00,86.1,68.6,29.73,SW,216,2.3,2.3,56,0.00,BKN,,0.00,903.0,WeatherDisplay:10.37,2013-05-22 17:44:00,
2013-05-22 13:49:00,86.3,68.8,29.73,SSW,210,2.3,2.3,56,0.00,BKN,,0.00,889.0,WeatherDisplay:10.37,2013-05-22 17:49:00,
2013-05-22 13:54:00,86.5,68.4,29.73,SSW,203,1.1,1.1,55,0.00,BKN,,0.00,889.0,WeatherDisplay:10.37,2013-05-22 17:54:00,
2013-05-22 13:59:00,87.4,68.7,29.72,SSW,196,2.3,2.3,54,0.00,BKN,,0.00,878.0,WeatherDisplay:10.37,2013-05-22 17:59:00,
2013-05-22 14:04:00,87.6,68.9,29.72,WNW,294,2.3,2.3,54,0.00,BKN,,0.00,855.0,WeatherDisplay:10.37,2013-05-22 18:04:00,
2013-05-22 14:09:00,87.6,68.4,29.72,South,179,2.3,2.3,53,0.00,BKN,,0.00,823.0,WeatherDisplay:10.37,2013-05-22 18:09:00,
2013-05-22 14:14:00,87.6,69.4,29.72,SSW,198,5.0,5.0,55,0.00,BKN,,0.00,818.0,WeatherDisplay:10.37,2013-05-22 18:14:00,
2013-05-22 14:19:00,87.2,68.0,29.72,South,184,1.1,1.1,53,0.00,BKN,,0.00,838.0,WeatherDisplay:10.37,2013-05-22 18:19:00,
2013-05-22 14:24:00,86.5,67.9,29.72,SSW,212,4.6,4.6,54,0.00,BKN,,0.00,820.0,WeatherDisplay:10.37,2013-05-22 18:24:00,
2013-05-22 14:29:00,86.1,68.0,29.71,WSW,246,1.1,1.1,55,0.00,BKN,,0.00,829.0,WeatherDisplay:10.37,2013-05-22 18:29:00,
2013-05-22 14:34:00,86.1,68.6,29.71,SSW,209,2.3,2.3,56,0.00,BKN,,0.00,869.0,WeatherDisplay:10.37,2013-05-22 18:34:00,
2013-05-22 14:39:00,86.5,67.3,29.71,SSW,199,3.5,3.5,53,0.00,BKN,,0.00,825.0,WeatherDisplay:10.37,2013-05-22 18:39:00,
2013-05-22 14:44:00,86.5,67.9,29.71,SSW,200,3.5,3.5,54,0.00,BKN,,0.00,815.0,WeatherDisplay:10.37,2013-05-22 18:44:00,
2013-05-22 14:49:00,87.0,68.9,29.71,WSW,237,2.3,2.3,55,0.00,BKN,,0.00,811.0,WeatherDisplay:10.37,2013-05-22 18:49:00,
2013-05-22 14:54:00,87.2,68.5,29.71,SSW,208,3.5,3.5,54,0.00,BKN,,0.00,811.0,WeatherDisplay:10.37,2013-05-22 18:54:00,
2013-05-22 14:59:00,86.5,68.4,29.70,SW,232,2.3,2.3,55,0.00,BKN,,0.00,769.0,WeatherDisplay:10.37,2013-05-22 18:59:00,
2013-05-22 15:05:00,86.3,67.7,29.70,SW,224,5.8,5.8,54,0.00,BKN,,0.00,787.0,WeatherDisplay:10.37,2013-05-22 19:05:00,
2013-05-22 15:11:00,86.7,68.1,29.70,WSW,256,4.6,4.6,54,0.00,BKN,,0.00,801.0,WeatherDisplay:10.37,2013-05-22 19:11:00,
2013-05-22 15:16:00,86.7,68.1,29.70,SSW,193,1.1,1.1,54,0.00,BKN,,0.00,751.0,WeatherDisplay:10.37,2013-05-22 19:16:00,
2013-05-22 15:21:00,87.0,67.8,29.70,SSW,198,5.8,5.8,53,0.00,BKN,,0.00,725.0,WeatherDisplay:10.37,2013-05-22 19:21:00,
2013-05-22 15:26:00,86.5,67.3,29.70,SSW,213,1.1,1.1,53,0.00,BKN,,0.00,702.0,WeatherDisplay:10.37,2013-05-22 19:26:00,
2013-05-22 15:31:00,86.7,68.6,29.70,SW,230,3.0,3.0,55,0.00,BKN,,0.00,700.0,WeatherDisplay:10.37,2013-05-22 19:31:00,
2013-05-22 15:36:00,86.7,67.5,29.70,West,268,2.3,2.3,53,0.00,BKN,,0.00,734.0,WeatherDisplay:10.37,2013-05-22 19:36:00,
2013-05-22 15:41:00,87.0,67.2,29.70,SSW,200,3.5,3.5,52,0.00,BKN,,0.00,690.0,WeatherDisplay:10.37,2013-05-22 19:41:00,
2013-05-22 15:46:00,87.0,67.2,29.70,SW,232,4.6,4.6,52,0.00,BKN,,0.00,697.0,WeatherDisplay:10.37,2013-05-22 19:46:00,
2013-05-22 15:51:00,87.0,67.8,29.70,SW,232,3.5,3.5,53,0.00,BKN,,0.00,655.0,WeatherDisplay:10.37,2013-05-22 19:51:00,
2013-05-22 15:56:00,86.5,67.9,29.70,South,182,3.5,3.5,54,0.00,BKN,,0.00,619.0,WeatherDisplay:10.37,2013-05-22 19:56:00,
2013-05-22 16:01:00,86.5,67.3,29.69,SSW,212,3.5,3.5,53,0.00,BKN,,0.00,640.0,WeatherDisplay:10.37,2013-05-22 20:01:00,
2013-05-22 16:06:00,86.1,67.0,29.69,SSW,200,3.5,3.5,53,0.00,BKN,,0.00,646.0,WeatherDisplay:10.37,2013-05-22 20:06:00,
2013-05-22 16:11:00,85.9,67.3,29.69,SW,229,2.0,2.0,54,0.00,BKN,,0.00,651.0,WeatherDisplay:10.37,2013-05-22 20:11:00,
2013-05-22 16:16:00,85.7,67.1,29.69,SW,216,3.5,3.5,54,0.00,BKN,,0.00,619.0,WeatherDisplay:10.37,2013-05-22 20:16:00,
2013-05-22 16:21:00,85.7,66.6,29.69,SW,219,1.1,1.1,53,0.00,BKN,,0.00,649.0,WeatherDisplay:10.37,2013-05-22 20:21:00,
2013-05-22 16:26:00,85.7,66.6,29.69,South,178,5.8,5.8,53,0.00,BKN,,0.00,616.0,WeatherDisplay:10.37,2013-05-22 20:26:00,
2013-05-22 16:31:00,85.7,66.6,29.69,SW,232,8.1,8.1,53,0.00,BKN,,0.00,595.0,WeatherDisplay:10.37,2013-05-22 20:31:00,
2013-05-22 16:36:00,85.7,66.6,29.69,West,264,4.6,4.6,53,0.00,BKN,,0.00,556.0,WeatherDisplay:10.37,2013-05-22 20:36:00,
2013-05-22 16:41:00,85.9,66.8,29.69,West,275,6.9,6.9,53,0.00,BKN,,0.00,565.0,WeatherDisplay:10.37,2013-05-22 20:41:00,
2013-05-22 16:46:00,85.9,67.3,29.69,SSW,203,2.3,2.3,54,0.00,BKN,,0.00,530.0,WeatherDisplay:10.37,2013-05-22 20:46:00,
2013-05-22 16:51:00,86.1,67.0,29.69,SW,227,2.3,2.3,53,0.00,BKN,,0.00,531.0,WeatherDisplay:10.37,2013-05-22 20:51:00,
2013-05-22 16:56:00,86.3,67.2,29.69,SSW,209,1.1,1.1,53,0.00,BKN,,0.00,521.0,WeatherDisplay:10.37,2013-05-22 20:56:00,
2013-05-22 17:01:00,86.1,67.5,29.68,South,184,2.3,2.3,54,0.00,BKN,,0.00,479.0,WeatherDisplay:10.37,2013-05-22 21:01:00,
2013-05-22 17:06:00,85.5,67.5,29.68,SW,224,3.5,3.5,55,0.00,BKN,,0.00,468.0,WeatherDisplay:10.37,2013-05-22 21:06:00,
2013-05-22 17:11:00,85.1,68.2,29.68,SSW,200,1.1,1.1,57,0.00,BKN,,0.00,445.0,WeatherDisplay:10.37,2013-05-22 21:11:00,
2013-05-22 17:16:00,85.1,67.6,29.68,WSW,244,2.3,2.3,56,0.00,BKN,,0.00,417.0,WeatherDisplay:10.37,2013-05-22 21:16:00,
2013-05-22 17:21:00,84.9,68.0,29.68,WSW,248,2.3,2.3,57,0.00,BKN,,0.00,433.0,WeatherDisplay:10.37,2013-05-22 21:21:00,
2013-05-22 17:26:00,84.9,68.5,29.68,South,189,3.5,3.5,58,0.00,BKN,,0.00,399.0,WeatherDisplay:10.37,2013-05-22 21:26:00,
2013-05-22 17:31:00,84.9,68.5,29.67,SSW,199,3.5,3.5,58,0.00,BKN,,0.00,336.0,WeatherDisplay:10.37,2013-05-22 21:31:00,
2013-05-22 17:36:00,84.7,68.8,29.67,WSW,240,6.9,6.9,59,0.00,BKN,,0.00,290.0,WeatherDisplay:10.37,2013-05-22 21:36:00,
2013-05-22 17:41:00,84.3,68.4,29.67,WSW,254,2.3,2.3,59,0.00,BKN,,0.00,236.0,WeatherDisplay:10.37,2013-05-22 21:41:00,
2013-05-22 17:46:00,84.1,68.7,29.67,SSW,203,1.1,1.1,60,0.00,BKN,,0.00,178.0,WeatherDisplay:10.37,2013-05-22 21:46:00,
2013-05-22 17:51:00,83.8,68.4,29.67,South,176,3.5,3.5,60,0.00,BKN,,0.00,211.0,WeatherDisplay:10.37,2013-05-22 21:51:00,
2013-05-22 17:56:00,83.6,68.2,29.67,South,175,5.8,5.8,60,0.00,BKN,,0.00,238.0,WeatherDisplay:10.37,2013-05-22 21:56:00,
2013-05-22 18:01:00,83.4,68.1,29.68,SSW,203,3.5,3.5,60,0.00,BKN,,0.00,227.0,WeatherDisplay:10.37,2013-05-22 22:01:00,
2013-05-22 18:06:00,83.2,67.9,29.68,SW,222,2.3,2.3,60,0.00,BKN,,0.00,223.0,WeatherDisplay:10.37,2013-05-22 22:06:00,
2013-05-22 18:11:00,83.0,67.7,29.68,SW,217,3.5,3.5,60,0.00,BKN,,0.00,185.0,WeatherDisplay:10.37,2013-05-22 22:11:00,
2013-05-22 18:16:00,82.8,67.0,29.68,SW,219,3.5,3.5,59,0.00,BKN,,0.00,118.0,WeatherDisplay:10.37,2013-05-22 22:16:00,
2013-05-22 18:21:00,82.6,65.3,29.68,West,261,5.8,5.8,56,0.00,BKN,,0.00,116.0,WeatherDisplay:10.37,2013-05-22 22:21:00,
2013-05-22 18:26:00,82.4,64.1,29.68,SW,219,2.3,2.3,54,0.00,BKN,,0.00,144.0,WeatherDisplay:10.37,2013-05-22 22:26:00,
2013-05-22 18:31:00,82.4,64.6,29.68,SSW,213,1.1,1.1,55,0.00,BKN,,0.00,99.0,WeatherDisplay:10.37,2013-05-22 22:31:00,
2013-05-22 19:06:00,82.0,67.7,29.68,SSW,205,3.5,3.5,62,0.00,BKN,,0.00,56.0,WeatherDisplay:10.37,2013-05-22 23:06:00,
2013-05-22 19:15:00,81.8,68.9,29.69,SW,226,1.1,1.1,65,0.00,BKN,,0.00,69.0,WeatherDisplay:10.37,2013-05-22 23:15:00,
2013-05-22 19:30:00,81.4,69.8,29.69,South,169,2.3,2.3,68,0.00,BKN,,0.00,40.0,WeatherDisplay:10.37,2013-05-22 23:30:00,
2013-05-22 19:35:00,81.2,69.6,29.69,SSW,208,3.5,3.5,68,0.00,BKN,,0.00,32.0,WeatherDisplay:10.37,2013-05-22 23:35:00,
2013-05-22 19:40:00,81.1,70.0,29.69,SSE,154,3.5,3.5,69,0.00,BKN,,0.00,28.0,WeatherDisplay:10.37,2013-05-22 23:40:00,
2013-05-22 19:45:00,80.7,69.6,29.68,SSW,193,3.5,3.5,69,0.00,BKN,,0.00,21.0,WeatherDisplay:10.37,2013-05-22 23:45:00,
2013-05-22 19:50:00,80.5,69.4,29.68,SSW,213,2.0,2.0,69,0.00,BKN,,0.00,12.0,WeatherDisplay:10.37,2013-05-22 23:50:00,
2013-05-22 19:55:00,80.3,69.2,29.68,SSW,192,2.3,2.3,69,0.00,BKN,,0.00,9.0,WeatherDisplay:10.37,2013-05-22 23:55:00,
2013-05-22 20:00:00,80.1,69.0,29.69,South,184,6.9,6.9,69,0.00,BKN,,0.00,7.0,WeatherDisplay:10.37,2013-05-23 00:00:00,
2013-05-22 20:05:00,79.9,69.2,29.69,South,191,1.1,1.1,70,0.00,BKN,,0.00,7.0,WeatherDisplay:10.37,2013-05-23 00:05:00,
2013-05-22 20:10:00,79.8,69.1,29.69,South,186,3.5,3.5,70,0.00,BKN,,0.00,5.0,WeatherDisplay:10.37,2013-05-23 00:10:00,
2013-05-22 20:15:00,79.6,69.4,29.69,SSW,202,3.5,3.5,71,0.00,BKN,,0.00,0.0,WeatherDisplay:10.37,2013-05-23 00:15:00,
2013-05-22 20:20:00,79.4,69.2,29.69,SSE,150,3.5,3.5,71,0.00,BKN,,0.00,0.0,WeatherDisplay:10.37,2013-05-23 00:20:00,
2013-05-22 20:25:00,79.2,69.0,29.69,South,169,2.3,2.3,71,0.00,BKN,,0.00,0.0,WeatherDisplay:10.37,2013-05-23 00:25:00,
2013-05-22 20:30:00,79.0,68.4,29.70,SW,226,5.8,5.8,70,0.00,BKN,,0.00,0.0,WeatherDisplay:10.37,2013-05-23 00:30:00,
2013-05-22 20:35:00,78.8,68.2,29.70,SSE,154,1.1,1.1,70,0.00,BKN,,0.00,0.0,WeatherDisplay:10.37,2013-05-23 00:35:00,
2013-05-22 20:40:00,78.8,68.2,29.70,SSW,212,2.3,2.3,70,0.00,BKN,,0.00,0.0,WeatherDisplay:10.37,2013-05-23 00:40:00,
2013-05-22 20:45:00,78.6,68.0,29.71,South,191,6.9,6.9,70,0.00,BKN,,0.00,0.0,WeatherDisplay:10.37,2013-05-23 00:45:00,
2013-05-22 20:50:00,78.6,68.0,29.71,SW,215,2.3,2.3,70,0.00,BKN,,0.00,0.0,WeatherDisplay:10.37,2013-05-23 00:50:00,
2013-05-22 20:55:00,78.5,68.3,29.71,SW,216,1.1,1.1,71,0.00,BKN,,0.00,0.0,WeatherDisplay:10.37,2013-05-23 00:55:00,
2013-05-22 21:00:00,78.3,68.1,29.71,SW,216,6.9,6.9,71,0.00,BKN,,0.00,0.0,WeatherDisplay:10.37,2013-05-23 01:00:00,
2013-05-22 21:05:00,78.1,67.9,29.71,WSW,253,1.1,1.1,71,0.00,BKN,,0.00,0.0,WeatherDisplay:10.37,2013-05-23 01:05:00,
2013-05-22 21:10:00,78.1,67.9,29.71,SSW,208,2.3,2.3,71,0.00,BKN,,0.00,0.0,WeatherDisplay:10.37,2013-05-23 01:10:00,
2013-05-22 21:15:00,78.1,68.3,29.72,SW,226,2.3,2.3,72,0.00,SCT,,0.00,0.0,WeatherDisplay:10.37,2013-05-23 01:15:00,
2013-05-22 21:20:00,77.9,68.1,29.72,SSW,193,2.3,2.3,72,0.00,SCT,,0.00,0.0,WeatherDisplay:10.37,2013-05-23 01:20:00,
2013-05-22 21:25:00,77.7,68.0,29.72,West,263,2.3,2.3,72,0.00,SCT,,0.00,0.0,WeatherDisplay:10.37,2013-05-23 01:25:00,
2013-05-22 21:30:00,77.6,68.3,29.73,SSW,200,4.6,4.6,73,0.00,SCT,,0.00,0.0,WeatherDisplay:10.37,2013-05-23 01:30:00,
2013-05-22 21:35:00,77.4,68.1,29.73,SSW,212,3.5,3.5,73,0.00,SCT,,0.00,0.0,WeatherDisplay:10.37,2013-05-23 01:35:00,
2013-05-22 21:40:00,77.4,68.1,29.73,SSW,202,4.6,4.6,73,0.00,SCT,,0.00,0.0,WeatherDisplay:10.37,2013-05-23 01:40:00,
2013-05-22 21:45:00,77.2,68.3,29.73,SW,227,1.1,1.1,74,0.00,SCT,,0.00,0.0,WeatherDisplay:10.37,2013-05-23 01:45:00,
2013-05-22 21:50:00,77.2,68.3,29.73,SSW,198,2.3,2.3,74,0.00,SCT,,0.00,0.0,WeatherDisplay:10.37,2013-05-23 01:50:00,
2013-05-22 21:55:00,77.0,68.1,29.73,SW,236,1.1,1.1,74,0.00,SCT,,0.00,0.0,WeatherDisplay:10.37,2013-05-23 01:55:00,
2013-05-22 22:00:00,77.0,68.1,29.73,SW,217,5.8,5.8,74,0.00,SCT,,0.00,0.0,WeatherDisplay:10.37,2013-05-23 02:00:00,
2013-05-22 22:05:00,76.8,67.9,29.73,SW,226,1.1,1.1,74,0.00,SCT,,0.00,0.0,WeatherDisplay:10.37,2013-05-23 02:05:00,
2013-05-22 22:10:00,76.8,68.3,29.73,SSW,213,2.3,2.3,75,0.00,SCT,,0.00,0.0,WeatherDisplay:10.37,2013-05-23 02:10:00,
2013-05-22 22:15:00,76.7,68.2,29.74,NW,308,10.4,10.4,75,0.00,SCT,,0.00,0.0,WeatherDisplay:10.37,2013-05-23 02:15:00,
2013-05-22 22:20:00,76.7,68.2,29.74,SW,233,1.1,1.1,75,0.00,SCT,,0.00,0.0,WeatherDisplay:10.37,2013-05-23 02:20:00,
2013-05-22 22:25:00,76.5,68.0,29.74,SW,230,1.1,1.1,75,0.00,SCT,,0.00,0.0,WeatherDisplay:10.37,2013-05-23 02:25:00,
2013-05-22 22:30:00,76.5,68.0,29.74,SSW,209,1.1,1.1,75,0.00,SCT,,0.00,0.0,WeatherDisplay:10.37,2013-05-23 02:30:00,
2013-05-22 22:35:00,76.5,68.0,29.74,SSW,212,2.3,2.3,75,0.00,SCT,,0.00,0.0,WeatherDisplay:10.37,2013-05-23 02:35:00,
2013-05-22 22:40:00,76.3,67.8,29.74,SSW,200,2.3,2.3,75,0.00,SCT,,0.00,0.0,WeatherDisplay:10.37,2013-05-23 02:40:00,
2013-05-22 22:45:00,76.3,67.8,29.74,SSW,208,0.0,0.1,75,0.00,SCT,,0.00,0.0,WeatherDisplay:10.37,2013-05-23 02:45:00,
2013-05-22 22:50:00,76.3,67.8,29.74,SW,220,3.5,3.5,75,0.00,SCT,,0.00,0.0,WeatherDisplay:10.37,2013-05-23 02:50:00,
2013-05-22 22:55:00,76.3,67.8,29.74,SW,224,8.1,8.1,75,0.00,SCT,,0.00,0.0,WeatherDisplay:10.37,2013-05-23 02:55:00,
2013-05-22 23:00:00,76.3,67.8,29.73,SW,224,2.3,2.3,75,0.00,SCT,,0.00,0.0,WeatherDisplay:10.37,2013-05-23 03:00:00,
2013-05-22 23:05:00,76.1,67.6,29.73,South,178,1.1,0.0,75,0.00,SCT,,0.00,0.0,WeatherDisplay:10.37,2013-05-23 03:05:00,
2013-05-22 23:10:00,76.1,67.6,29.73,South,178,1.1,1.1,75,0.00,SCT,,0.00,0.0,WeatherDisplay:10.37,2013-05-23 03:10:00,
2013-05-22 23:15:00,76.0,67.9,29.73,SW,219,1.1,1.1,76,0.00,BKN,,0.00,0.0,WeatherDisplay:10.37,2013-05-23 03:15:00,
2013-05-22 23:20:00,75.8,67.7,29.73,SW,219,0.0,0.1,76,0.00,BKN,,0.00,0.0,WeatherDisplay:10.37,2013-05-23 03:20:00,
2013-05-22 23:25:00,75.8,67.7,29.73,SW,219,1.1,1.1,76,0.00,BKN,,0.00,0.0,WeatherDisplay:10.37,2013-05-23 03:25:00,
2013-05-22 23:30:00,75.8,67.7,29.73,SW,217,1.1,1.1,76,0.00,BKN,,0.00,0.0,WeatherDisplay:10.37,2013-05-23 03:30:00,
2013-05-22 23:35:00,75.6,67.5,29.73,SSW,209,2.3,2.3,76,0.00,BKN,,0.00,0.0,WeatherDisplay:10.37,2013-05-23 03:35:00,
2013-05-22 23:40:00,75.4,67.3,29.73,SW,223,1.1,1.1,76,0.00,BKN,,0.00,0.0,WeatherDisplay:10.37,2013-05-23 03:40:00,
2013-05-22 23:45:00,75.3,67.2,29.73,SW,234,1.1,1.1,76,0.00,BKN,,0.00,0.0,WeatherDisplay:10.37,2013-05-23 03:45:00,
2013-05-22 23:50:00,75.3,67.2,29.73,WSW,239,3.5,3.5,76,0.00,BKN,,0.00,0.0,WeatherDisplay:10.37,2013-05-23 03:50:00,
2013-05-22 23:55:00,75.1,67.0,29.73,WSW,237,1.1,0.0,76,0.00,BKN,,0.00,0.0,WeatherDisplay:10.37,2013-05-23 03:55:00,